Huvudsida
METAR-TAF:

METAR-TAF

Flygplatser :

Sultan Syarif Kasim II International Airport

Pakanbaru, Indonesien

latitud: 00-28N, longitud: 101-27E, höjd: 31 m

Aktuellt väderrapport

Denna rapport gjordes för 22 timmar och 17 minuter sedan, klockan 10:30 UTC
Vind 5 kt från ost/sydost
Temperatur 31°C
Fuktighet 63%
Tryck 1007 hPa
Sikt 10 km eller mer
Få moln på en höjd av 1600 ft

METAR: WIBB 201030Z 11005KT 9999 FEW016 31/23 Q1007

Tid: 15:47 (08:47 UTC)


TAF: saknas

Aktuella väderrapporter och prognoser från 4000 flygplatser (METAR- och TAF-rapporter).

De tillgängliga stationerna syns som gula och röda prickar på kartan.

För musen över prickarna för att se namnen på stationerna.

Klicka sedan för att få väderrapporter och prognoser.

För att ändra kartan: Klicka på de gröna knapparna med ett svart kors på för att zooma in; den gröna knappen med ett streck på för att zooma ut; eller på de gröna pilarna för angränsande kartor.


METAR-TAF: